LOT761 EPWA-UUEE

Flight info

Callsign LOT761
Flight time 1h 33m
Altitude 37000
Route BAMSO Z182 ASLUX M863 RUDKA T174 OSMUS N869 LAPKI L999 AGLAN M864 DIPOP DIPOP3F
Aircraft B38M/M-SDE1FGHILORVWXY/HB1

Departure

Time 2026-05-04 10:54
Airport Warsaw Chopin Airport (EPWA)

Arrival

Time 2026-05-04 12:28
Airport Sheremetyevo International Airport (UUEE)
Time Latitude Longitude Altitude Speed Heading
2026-05-04 10:41 52.16913 20.97216 335 ft 0 kts 76°
2026-05-04 10:46 52.16909 20.97193 351 ft 0 kts 76°
2026-05-04 10:47 52.16907 20.97176 337 ft 0 kts 76°
2026-05-04 10:47 52.16903 20.97151 336 ft 0 kts 76°
2026-05-04 10:47 52.16890 20.97077 346 ft 0 kts 154°
2026-05-04 10:47 52.16894 20.97074 336 ft 0 kts 151°
2026-05-04 10:49 52.16872 20.97092 336 ft 7 kts 153°
2026-05-04 10:49 52.16820 20.97135 338 ft 10 kts 152°
2026-05-04 10:50 52.16753 20.97193 341 ft 12 kts 152°
2026-05-04 10:51 52.16217 20.98461 341 ft 1 kts 205°
2026-05-04 10:52 52.16201 20.98448 341 ft 5 kts 206°
2026-05-04 10:52 52.16126 20.98384 339 ft 13 kts 221°
2026-05-04 10:52 52.16138 20.98265 339 ft 12 kts 300°
2026-05-04 10:54 52.19797 20.88289 3093 ft 230 kts 333°
2026-05-04 10:54 52.21441 20.87776 3721 ft 255 kts 352°
2026-05-04 10:56 52.32025 20.82751 9803 ft 302 kts 45°
2026-05-04 10:56 52.33464 20.85320 10447 ft 315 kts 51°
2026-05-04 10:56 52.34478 20.88618 10837 ft 336 kts 75°
2026-05-04 10:57 52.34688 20.92509 11231 ft 354 kts 92°
2026-05-04 10:57 52.34653 20.96637 11619 ft 372 kts 91°
2026-05-04 10:57 52.34638 21.00935 12148 ft 382 kts 91°
2026-05-04 10:57 52.34622 21.05297 12961 ft 385 kts 91°
2026-05-04 10:58 52.34780 21.09709 13650 ft 393 kts 79°
2026-05-04 10:58 52.35396 21.14073 14353 ft 397 kts 78°
2026-05-04 10:58 52.36015 21.18516 15002 ft 402 kts 77°
2026-05-04 10:58 52.36644 21.22995 15680 ft 406 kts 77°
2026-05-04 10:59 52.37279 21.27521 16339 ft 411 kts 77°
2026-05-04 10:59 52.37840 21.32128 16953 ft 415 kts 86°
2026-05-04 10:59 52.37726 21.36775 17639 ft 415 kts 98°
2026-05-04 10:59 52.37416 21.41498 18216 ft 420 kts 98°
2026-05-04 11:00 52.37074 21.46276 18635 ft 429 kts 104°
2026-05-04 11:01 52.34419 21.80558 22709 ft 444 kts 98°
2026-05-04 11:02 52.34019 21.85570 23337 ft 444 kts 99°
2026-05-04 11:02 52.33636 21.90582 23843 ft 446 kts 97°
2026-05-04 11:05 52.40719 22.62380 29284 ft 483 kts 73°
2026-05-04 11:06 52.41692 22.67655 29675 ft 484 kts 73°
2026-05-04 11:06 52.42668 22.72961 29998 ft 487 kts 73°
2026-05-04 11:06 52.43641 22.78270 30394 ft 486 kts 73°
2026-05-04 11:06 52.44609 22.83562 30782 ft 486 kts 73°
2026-05-04 11:08 52.55368 23.17154 33654 ft 473 kts 55°
2026-05-04 11:10 52.67940 23.48572 35824 ft 470 kts 55°
2026-05-04 11:12 52.80422 23.80156 36952 ft 468 kts 56°
2026-05-04 11:12 52.82193 23.84667 36977 ft 468 kts 56°
2026-05-04 11:12 52.85707 23.93705 36959 ft 466 kts 57°
2026-05-04 11:13 52.89175 24.02808 36965 ft 467 kts 57°
2026-05-04 11:13 52.92644 24.11921 36968 ft 467 kts 57°
2026-05-04 11:14 52.93206 24.13400 36946 ft 467 kts 56°
2026-05-04 11:16 53.10299 24.57282 36956 ft 470 kts 57°
2026-05-04 11:16 53.13825 24.66425 36946 ft 470 kts 56°
2026-05-04 11:17 53.17349 24.75598 36955 ft 469 kts 57°
2026-05-04 11:19 53.30513 25.05803 36910 ft 455 kts 70°
2026-05-04 11:19 53.31503 25.10846 36909 ft 459 kts 68°
2026-05-04 11:19 53.34465 25.20340 36955 ft 464 kts 59°
2026-05-04 11:20 53.37788 25.29598 36942 ft 469 kts 57°
2026-05-04 11:20 53.41217 25.38885 36935 ft 468 kts 57°
2026-05-04 11:22 53.54933 25.76068 36951 ft 467 kts 58°
2026-05-04 11:23 53.58339 25.85391 36945 ft 467 kts 58°
2026-05-04 11:25 53.70202 26.18129 36935 ft 468 kts 58°
2026-05-04 11:25 53.73561 26.27480 36936 ft 469 kts 58°
2026-05-04 11:27 53.88691 26.70024 36928 ft 470 kts 58°
2026-05-04 11:28 53.91971 26.79607 36931 ft 470 kts 59°
2026-05-04 11:28 53.95248 26.89207 36928 ft 470 kts 59°
2026-05-04 11:29 53.98515 26.98817 36925 ft 470 kts 59°
2026-05-04 11:29 54.01776 27.08442 36936 ft 470 kts 59°
2026-05-04 11:33 54.22039 27.78244 36921 ft 471 kts 65°
2026-05-04 11:33 54.24283 27.86717 36918 ft 471 kts 65°
2026-05-04 11:34 54.26970 27.96910 36914 ft 471 kts 65°
2026-05-04 11:34 54.29653 28.07131 36912 ft 471 kts 65°
2026-05-04 11:35 54.32327 28.17360 36916 ft 471 kts 65°
2026-05-04 11:35 54.34994 28.27614 36909 ft 472 kts 65°
2026-05-04 11:36 54.37652 28.37884 36904 ft 470 kts 65°
2026-05-04 11:36 54.40290 28.48115 36911 ft 469 kts 65°
2026-05-04 11:37 54.42922 28.58371 36907 ft 469 kts 65°
2026-05-04 11:37 54.45542 28.68626 36907 ft 469 kts 65°
2026-05-04 11:38 54.48168 28.78927 36902 ft 471 kts 64°
2026-05-04 11:38 54.51048 28.89047 36912 ft 471 kts 63°
2026-05-04 11:39 54.53906 28.99196 36899 ft 471 kts 63°
2026-05-04 11:41 54.63817 29.34787 36903 ft 470 kts 63°
2026-05-04 11:41 54.66626 29.44969 36901 ft 470 kts 63°
2026-05-04 11:41 54.68270 29.49815 36878 ft 466 kts 50°
2026-05-04 11:42 54.70280 29.54204 36897 ft 467 kts 51°
2026-05-04 11:42 54.74211 29.63061 36910 ft 467 kts 50°
2026-05-04 11:43 54.78191 29.71967 36911 ft 467 kts 50°
2026-05-04 11:43 54.82164 29.80885 36896 ft 468 kts 50°
2026-05-04 11:44 54.86142 29.89843 36894 ft 468 kts 50°
2026-05-04 11:44 54.90113 29.98819 36895 ft 468 kts 51°
2026-05-04 11:45 54.94077 30.07810 36899 ft 469 kts 51°
2026-05-04 11:45 54.98031 30.16813 36905 ft 469 kts 51°
2026-05-04 11:46 55.01982 30.25843 36910 ft 469 kts 51°
2026-05-04 11:46 55.05928 30.34894 36911 ft 469 kts 51°
2026-05-04 11:47 55.09865 30.43955 36910 ft 468 kts 51°
2026-05-04 11:47 55.13772 30.52982 36920 ft 465 kts 51°
2026-05-04 11:48 55.17678 30.62040 36907 ft 467 kts 51°
2026-05-04 11:48 55.21579 30.71119 36899 ft 467 kts 51°
2026-05-04 11:49 55.25478 30.80221 36893 ft 467 kts 51°
2026-05-04 11:49 55.28648 30.89995 36895 ft 468 kts 70°
2026-05-04 11:50 55.30795 31.00838 36880 ft 471 kts 70°
2026-05-04 11:50 55.32898 31.11758 36890 ft 473 kts 70°
2026-05-04 11:51 55.34976 31.22723 36879 ft 473 kts 70°
2026-05-04 11:51 55.37041 31.33689 36883 ft 473 kts 70°
2026-05-04 11:52 55.39096 31.44679 36879 ft 473 kts 70°
2026-05-04 11:52 55.41135 31.55643 36880 ft 470 kts 70°
2026-05-04 11:53 55.43159 31.66589 36888 ft 471 kts 70°
2026-05-04 11:53 55.45176 31.77565 36877 ft 471 kts 70°
2026-05-04 11:55 55.53154 32.21625 36876 ft 472 kts 71°
2026-05-04 11:56 55.55112 32.32595 36883 ft 472 kts 70°
2026-05-04 11:56 55.57067 32.43626 36872 ft 470 kts 71°
2026-05-04 11:57 55.59012 32.54662 36871 ft 471 kts 71°
2026-05-04 11:57 55.60949 32.65717 36870 ft 471 kts 71°
2026-05-04 11:58 55.62876 32.76788 36868 ft 471 kts 71°
2026-05-04 11:58 55.64793 32.87867 36869 ft 471 kts 71°
2026-05-04 11:59 55.66700 32.98952 36875 ft 471 kts 71°
2026-05-04 11:59 55.68603 33.10080 36869 ft 472 kts 71°
2026-05-04 12:00 55.70497 33.21210 36866 ft 472 kts 71°
2026-05-04 12:00 55.72369 33.32339 36864 ft 470 kts 71°
2026-05-04 12:01 55.74232 33.43453 36868 ft 471 kts 71°
2026-05-04 12:02 55.80673 33.82422 36862 ft 471 kts 71°
2026-05-04 12:03 55.82497 33.93618 36869 ft 471 kts 71°
2026-05-04 12:03 55.84310 34.04822 36863 ft 471 kts 71°
2026-05-04 12:04 55.86109 34.16016 36622 ft 468 kts 72°
2026-05-04 12:04 55.87008 34.21629 35489 ft 477 kts 72°
2026-05-04 12:04 55.87910 34.27284 35011 ft 471 kts 71°
2026-05-04 12:05 55.88803 34.32911 34152 ft 475 kts 73°
2026-05-04 12:05 55.89249 34.38779 33254 ft 481 kts 88°
2026-05-04 12:05 55.89346 34.44686 32627 ft 476 kts 85°
2026-05-04 12:05 55.89497 34.50604 31575 ft 482 kts 86°
2026-05-04 12:06 55.89626 34.56609 30534 ft 487 kts 87°
2026-05-04 12:06 55.89739 34.62653 29668 ft 488 kts 88°
2026-05-04 12:06 55.89846 34.68671 28808 ft 486 kts 88°
2026-05-04 12:06 55.89950 34.74694 27881 ft 486 kts 88°
2026-05-04 12:07 55.90050 34.80719 26996 ft 486 kts 88°
2026-05-04 12:07 55.90149 34.86718 26319 ft 482 kts 88°
2026-05-04 12:07 55.90242 34.92656 25623 ft 478 kts 88°
2026-05-04 12:07 55.90333 34.98566 24917 ft 475 kts 88°
2026-05-04 12:08 55.90422 35.04435 24184 ft 474 kts 88°
2026-05-04 12:08 55.90510 35.10315 23370 ft 475 kts 88°
2026-05-04 12:08 55.90596 35.16174 22657 ft 471 kts 88°
2026-05-04 12:08 55.90678 35.21986 21974 ft 467 kts 88°
2026-05-04 12:09 55.90756 35.27682 21288 ft 464 kts 88°
2026-05-04 12:09 55.90832 35.33419 20600 ft 461 kts 88°
2026-05-04 12:09 55.90904 35.39118 19915 ft 458 kts 88°
2026-05-04 12:09 55.90974 35.44777 19249 ft 456 kts 88°
2026-05-04 12:10 55.91040 35.50409 18579 ft 454 kts 88°
2026-05-04 12:10 55.91103 35.55994 18168 ft 445 kts 89°
2026-05-04 12:10 55.91163 35.61454 17794 ft 435 kts 89°
2026-05-04 12:10 55.91219 35.66772 17542 ft 424 kts 89°
2026-05-04 12:11 55.91271 35.71951 17348 ft 412 kts 89°
2026-05-04 12:11 55.91319 35.76996 17163 ft 402 kts 89°
2026-05-04 12:11 55.91366 35.81910 16990 ft 391 kts 89°
2026-05-04 12:11 55.91552 35.86704 16535 ft 388 kts 80°
2026-05-04 12:12 55.91955 35.91442 16117 ft 386 kts 81°
2026-05-04 12:12 55.92323 35.96175 15664 ft 385 kts 82°
2026-05-04 12:12 55.92698 36.00899 15134 ft 386 kts 77°
2026-05-04 12:12 55.93517 36.05453 14653 ft 386 kts 69°
2026-05-04 12:13 55.94361 36.10084 14218 ft 401 kts 71°
2026-05-04 12:14 56.00275 36.43089 11351 ft 372 kts 70°
2026-05-04 12:15 56.01046 36.47426 11163 ft 362 kts 70°
2026-05-04 12:15 56.01797 36.51663 11000 ft 352 kts 70°
2026-05-04 12:15 56.02525 36.55781 10816 ft 343 kts 70°
2026-05-04 12:15 56.03235 36.59802 10654 ft 335 kts 70°
2026-05-04 12:16 56.03924 36.63720 10496 ft 326 kts 70°
2026-05-04 12:16 56.04596 36.67544 10347 ft 318 kts 70°
2026-05-04 12:16 56.05247 36.71259 10189 ft 309 kts 70°
2026-05-04 12:16 56.05881 36.74885 10051 ft 302 kts 70°
2026-05-04 12:17 56.06349 36.77566 9846 ft 300 kts 70°
2026-05-04 12:17 56.06615 36.79088 9714 ft 300 kts 70°
2026-05-04 12:18 56.07235 36.82650 9342 ft 300 kts 70°
2026-05-04 12:18 56.07852 36.86207 9006 ft 300 kts 70°
2026-05-04 12:18 56.08469 36.89764 8680 ft 299 kts 70°
2026-05-04 12:18 56.09083 36.93311 8367 ft 297 kts 70°
2026-05-04 12:19 56.09692 36.96839 8049 ft 296 kts 71°
2026-05-04 12:19 56.10298 37.00354 7749 ft 295 kts 70°
2026-05-04 12:19 56.10902 37.03865 7429 ft 294 kts 71°
2026-05-04 12:19 56.11504 37.07372 7122 ft 294 kts 71°
2026-05-04 12:20 56.12102 37.10863 6826 ft 293 kts 71°
2026-05-04 12:20 56.12700 37.14356 6505 ft 293 kts 71°
2026-05-04 12:20 56.13295 37.17840 6210 ft 292 kts 71°
2026-05-04 12:20 56.13890 37.21334 5882 ft 293 kts 71°
2026-05-04 12:21 56.14485 37.24834 5529 ft 294 kts 71°
2026-05-04 12:21 56.15080 37.28333 5226 ft 293 kts 71°
2026-05-04 12:21 56.15481 37.31917 4856 ft 297 kts 91°
2026-05-04 12:21 56.14966 37.35462 4540 ft 294 kts 121°
2026-05-04 12:22 56.14173 37.37385 4451 ft 286 kts 135°
2026-05-04 12:22 56.12860 37.39967 4384 ft 275 kts 135°
2026-05-04 12:22 56.11196 37.43276 4244 ft 265 kts 135°
2026-05-04 12:22 56.09974 37.45693 4080 ft 259 kts 135°
2026-05-04 12:23 56.08779 37.48050 3935 ft 252 kts 134°
2026-05-04 12:23 56.07617 37.50341 3757 ft 245 kts 135°
2026-05-04 12:23 56.06846 37.51856 3646 ft 242 kts 134°
2026-05-04 12:23 56.05713 37.54086 3371 ft 244 kts 135°
2026-05-04 12:24 56.04569 37.56329 3104 ft 243 kts 135°
2026-05-04 12:24 56.03319 37.58278 2838 ft 234 kts 158°
2026-05-04 12:24 56.01782 37.58975 2517 ft 230 kts 187°
2026-05-04 12:24 56.00263 37.58237 2224 ft 226 kts 216°
2026-05-04 12:25 55.99186 37.56295 1872 ft 217 kts 245°
2026-05-04 12:25 55.98866 37.53906 1719 ft 189 kts 269°
2026-05-04 12:25 55.98706 37.51728 1537 ft 166 kts 254°
2026-05-04 12:25 55.98464 37.50382 1325 ft 153 kts 254°
2026-05-04 12:26 55.98394 37.49979 1307 ft 146 kts 255°
2026-05-04 12:26 55.98159 37.48309 1113 ft 132 kts 258°
2026-05-04 12:27 55.97921 37.46741 931 ft 131 kts 257°
2026-05-04 12:27 55.97687 37.45153 779 ft 136 kts 257°
2026-05-04 12:27 55.97443 37.43507 649 ft 134 kts 256°
2026-05-04 12:27 55.97234 37.42110 640 ft 89 kts 255°
2026-05-04 12:28 55.97137 37.41408 642 ft 26 kts 275°
2026-05-04 12:28 55.97212 37.41322 642 ft 21 kts 346°
2026-05-04 12:28 55.97404 37.41232 642 ft 32 kts 345°
2026-05-04 12:28 55.97611 37.41151 641 ft 14 kts 22°
2026-05-04 12:29 55.97648 37.41215 641 ft 2 kts
2026-05-04 12:29 55.97685 37.41202 641 ft 10 kts 344°
2026-05-04 12:29 55.97713 37.41189 641 ft 0 kts 345°